Regional Weather Roundup
Issued by NWS

Home | Current Version | Previous Version | Graphics & Text | Print | Product List | Glossary On
Versions: 1 2 3 4 5 6 7 8 9 10 11 12 13 14 15 16 17 18 19 20 21 22 23 24 25 26 27 28 29 30 31 32 33 34 35 36 37 38 39 40 41 42 43 44 45 46 47 48 49 50
000
ASUS43 KFSD 171802
RWRSD

WEATHER ROUNDUP FOR SOUTH DAKOTA
NATIONAL WEATHER SERVICE SIOUX FALLS SD
1200 PM CST SUN DEC 17 2017

NOTE: "FAIR" INDICATES FEW OR NO CLOUDS BELOW 12,000 FEET WITH NO
SIGNIFICANT WEATHER AND/OR OBSTRUCTIONS TO VISIBILITY.


SDZ001>005-009-010-012>017-171900-
NORTHWEST AND NORTH CENTRAL SOUTH DAKOTA

CITY           SKY/WX    TMP DP  RH WIND       PRES   REMARKS
BUFFALO          N/A     38  27  64 S16       29.83F
FAITH            N/A     35  27  72 S10       29.95F WCI  27
MOBRIDGE       SUNNY     38  26  62 S6        29.96F
$$

SDZ012>016-024>037-041>051-057-063-072>074-171900-
SOUTHWEST AND SOUTH CENTRAL SOUTH DAKOTA

CITY           SKY/WX    TMP DP  RH WIND       PRES   REMARKS
RAPID CTY ARPT CLOUDY    34  25  69 S15       29.93F WCI  24
PIERRE         CLOUDY    34  30  85 SW6       30.01F WCI  29
CUSTER         CLOUDY    24  21  88 SW10      29.87F WCI  14
ELLSWORTH AFB  CLOUDY    34  27  76 S17       29.91F WCI  23
PHILIP         CLOUDY    36  28  73 SE3       30.00F
PINE RIDGE     CLOUDY    36  29  75 SW10      29.98F
SPEARFISH      FAIR      32  27  80 NW10      29.90F WCI  24
WINNER         CLOUDY    39  33  79 W3        30.03F
$$

SDZ004>011-016>023-039-040-171900-
NORTHEAST SOUTH DAKOTA

CITY           SKY/WX    TMP DP  RH WIND       PRES   REMARKS
ABERDEEN       MOSUNNY   34  29  82 S6        30.02F WCI  29
WATERTOWN      CLOUDY    34  31  88 SW8       30.00F WCI  27
BROOKINGS      CLOUDY    34  31  88 CALM      30.02F
SISSETON         N/A     38  33  82 W5        30.00F
$$

SDZ017-020-022-023-036>040-048>070-171900-
SOUTHEAST SOUTH DAKOTA

CITY           SKY/WX    TMP DP  RH WIND       PRES   REMARKS
SIOUX FALLS    PTSUNNY   33  30  88 CALM      30.03F
HURON          CLOUDY    37  33  85 MISG      30.03F
CHAMBERLAIN    CLOUDY    37  35  89 W6        30.04F
MITCHELL       CLOUDY    36  33  89 CALM      30.06F
YANKTON        MOSUNNY   36  29  75 N7        30.05F
$$

ABBREVIATIONS USED IN REMARKS
   TC - TEMPERATURE IN CELSIUS
  WCI - WIND CHILL INDEX
   HX - HEAT INDEX
  VSB - VISIBILITY





USA.gov is the U.S. government's official web portal to all federal, state and local government web resources and services.